Satellite-Ground Cal/Val Site Overpasses Predictions

Prediction of Satellite NPP Overpassing Cal/Val Site: Antarctic Dome C

Ground Cal/Val Site Location: Latitude: -75.10, Longitude: 123.35; Satellite-Ground Site NADIR distance within 100 km.

Table of predicted overpasses for the next 14.0 days since TLE Epoch: 11/7/2016
Interval Starting Time Ending Time Minimum Distance Time Minimum Distance (km)
1 11/10/2016 14:55:34 11/10/2016 14:56:03 11/10/2016 14:55:49 21.34
2 11/11/2016 14:36:53 11/11/2016 14:37:07 11/11/2016 14:37:00 85.87
3 11/12/2016 07:38:25 11/12/2016 07:38:51 11/12/2016 07:38:38 39.37
4 11/13/2016 07:19:39 11/13/2016 07:19:59 11/13/2016 07:19:49 70.50
5 11/15/2016 15:01:54 11/15/2016 15:02:17 11/15/2016 15:02:06 58.54
6 11/16/2016 14:43:03 11/16/2016 14:43:28 11/16/2016 14:43:16 50.77
7 11/17/2016 07:44:45 11/17/2016 07:45:04 11/17/2016 07:44:55 74.82
8 11/18/2016 07:25:51 11/18/2016 07:26:19 11/18/2016 07:26:05 32.94
9 11/20/2016 15:08:18 11/20/2016 15:08:25 11/20/2016 15:08:22 96.54
